Погода в Арзубихе

Россия / Вологодская область     60°09′30″N   40°34′24″E
темп.,
°C
ветер,
м/с
пор.,
м/с
влажн.,
%
обл.,
%
осадки,
мм/ч
давл.,
гПа
погр.,
м
24 января, пн
пн2400:00−14юз3119696 0.0 1031244
03:00−12юз4139357 0.0 1031326
06:00−11юз4149298 0.0 1030393
09:00−11юз414919 0.0 1029378
12:00−9юз5159054 0.0 1028462
15:00−7юз5158872 0.0 1027504
18:00−7ююз51589100 0.0 1026480
21:00−7ююз51689100 0.0 1024490
25 января, вт
вт2500:00−7ююз61788100 0.0 1022532
03:00−8ююз51787100 0.0 1019527
06:00−8ююз51692100 0.1 1017561
09:00−8ююз51593100 0.6 1015537
12:00−8ююз41394100 0.6 1013518
15:00−8ююз41195100 1.8 1012531
18:00−8ююз3995100 1.4 1011433
21:00−8ююз3796100 2.4 1011327
26 января, ср
ср2600:00−8ююз2597100 0.6 1011176
03:00−9зюз1297100 1.0 101257
06:00−8ссз389692 0.3 1013293
09:00−15сз239846 0.3 101561
12:00−13ссз249661 0.0 1016118
15:00−13зсз119860 0.0 101716
18:00−21зсз1110086 0.0 10189
21:00−23з1110093 0.0 10189
27 января, чт
чт2700:00−24ююз1110098 0.0 10189
03:00−24юз1110097 0.0 10189
06:00−24ююз1110095 0.0 10179
09:00−25ю1110094 0.0 101610
12:00−13ю24948 0.0 1015125
15:00−12ююв2694100 0.0 1014166
18:00−14ююв2996100 0.0 1013182
21:00−17ююв269869 0.0 1012108
28 января, пт
пт2800:00−16юв3895100 0.0 1011166
03:00−14юв31192100 0.0 1010283
06:00−14юв4119099 0.0 1008314
09:00−13юв41191100 0.0 1008349
12:00−12ююв41091100 0.0 1007391
15:00−11юв31092100 0.1 1006450
18:00−11юв3109497 0.2 1006416
21:00−11юв3995100 0.5 1007379